Regional Weather Roundup
Issued by NWS

Home | Current Version | Previous Version | Graphics & Text | Print | Product List | Glossary On
Versions: 1 2 3 4 5 6 7 8 9 10 11 12 13 14 15 16 17 18 19 20 21 22 23 24 25 26 27 28 29 30 31 32 33 34 35 36 37 38 39 40 41 42 43 44 45 46 47 48 49 50
000
ASUS43 KLSX 240907
RWRMO

WEATHER SUMMARY FOR MISSOURI
NATIONAL WEATHER SERVICE SPRINGFIELD MO
400 AM CDT WED AUG 24 2016

NOTE: "FAIR" INDICATES FEW OR NO CLOUDS BELOW 12,000 FEET WITH NO
       SIGNIFICANT WEATHER AND/OR OBSTRUCTIONS TO VISIBILITY.
       CURRENT SKY AND/OR WEATHER CONDITIONS ARE NOT AVAILABLE FOR
       CHILLICOTHE AND FARMINGTON.

MOZ001>031-035>038-043-044-053-054-241000-
...NORTHERN AND WESTERN MISSOURI...

CITY           SKY/WX    TMP DP  RH WIND       PRES   REMARKS
KANSAS CTY INT LGT RAIN  73  72  96 N18G26    30.00R
KANSAS C DTWN  CLOUDY    77  71  82 N8        29.97R THUNDER
LEE`S SUMMIT   CLOUDY    77  70  79 SW17      29.96S
ST JOSEPH      LGT RAIN  67  65  93 SE7       29.99F
CHILLICOTHE      N/A     72  70  93 VRB3      29.99R
KIRKSVILLE     CLOUDY    77  70  79 SW12G24   29.95F

$$
MOZ066>068-077>081-088>096-101>105-241000-
...SOUTHWEST MISSOURI...

CITY           SKY/WX    TMP DP  RH WIND       PRES   REMARKS
SPRINGFIELD    CLEAR     75  69  81 S12       30.06R
JOPLIN         PTCLDY    78  71  79 S14G22    30.03R
BRANSON        PTCLDY    75  72  88 S5        30.10R

$$
MOZ032>034-039>042-045>050-055>058-069>072-241000-
...CENTRAL MISSOURI...

CITY           SKY/WX    TMP DP  RH WIND       PRES   REMARKS
COLUMBIA       CLOUDY    74  72  93 S10       30.01F
JEFFERSON CITY PTCLDY    76  71  85 S6        30.01S
ROLLA          PTCLDY    75  71  87 S12       30.05S
SEDALIA        PTCLDY    78  70  76 S13       30.00S
WHITEMAN AFB   PTCLDY    77  73  88 SW17G25   29.95F
OSAGE BEACH    PTCLDY    76  71  85 S9        30.03S

$$
MOZ051-052-059>065-241000-
...EAST CENTRAL MISSOURI...

CITY           SKY/WX    TMP DP  RH WIND       PRES   REMARKS
ST LOUIS INTL  MOCLDY    76  72  87 S10       30.06S
SPIRIT OF STL  CLOUDY    76  73  91 VRB3      30.03F
ST CHARLES     MOCLDY    74  74 100 S7        30.03F

$$
MOZ072>076-082>087-097>100-106>115-241000-
...SOUTH CENTRAL AND SOUTHEAST MISSOURI...

CITY           SKY/WX    TMP DP  RH WIND       PRES   REMARKS
CAPE GIRARDEAU CLOUDY    75  73  93 S7        30.12R
FARMINGTON     CLOUDY    74  73  97 S6        30.11S
POPLAR BLUFF   PTCLDY    73  72  96 SE3       30.11R FOG
WEST PLAINS    PTCLDY    75  71  87 S6        30.13S

$$



USA.gov is the U.S. government's official web portal to all federal, state and local government web resources and services.